Terminal Aerodrome Forecast
Issued by NWS Pueblo, CO

Home | Current Version | Previous Version | Text Only | Print | Product List | Glossary On
Versions: 1 2 3 4 5 6 7 8 9 10 11 12 13 14 15 16 17 18 19 20 21 22 23 24 25 26 27 28 29 30 31 32 33 34 35
000
FTUS45 KPUB 020520
TAFALS
TAF
KALS 020520Z 0206/0306 VRB05KT P6SM SCT040 BKN100
     FM022000 12008KT P6SM VCTS SCT050CB BKN120
     FM030100 VRB06KT P6SM SCT060 BKN100=

USA.gov is the U.S. government's official web portal to all federal, state and local government web resources and services.